Waarnemingen

Advertentie
Mijn weer
Eskilstuna, Zweden (2449): temperatuur & dauwpunt: 22.10.2020 01:00:00 - 28.10.2020 01:00:00 (CET)Eskilstuna, Zweden (2449): windsnelheid & windstoten: 22.10.2020 01:00:00 - 28.10.2020 01:00:00 (CET)Eskilstuna, Zweden (2449): windrichting: 22.10.2020 01:00:00 - 28.10.2020 01:00:00 (CET)Eskilstuna, Zweden (2449): luchtdruk: 22.10.2020 01:00:00 - 28.10.2020 01:00:00 (CET)Eskilstuna, Zweden (2449): zicht: 22.10.2020 01:00:00 - 28.10.2020 01:00:00 (CET)Eskilstuna, Zweden (2449): neerslag: 22.10.2020 01:00:00 - 28.10.2020 01:00:00 (CET)
Datum & Tijd tt [°C] td [°C] ff [km/u] ff [kn] fx [km/u] fx [kn] dd ppp [hPa] vv [km] rr [mm]
28.10.2020 01:00:00 - - - - - - - - - -
28.10.2020 00:00:00 8,2 5,1 10 6 21 11 ZZW 1000,6 25 0,0
27.10.2020 23:00:00 7,7 5,0 11 6 22 12 ZZW 1000,9 20 0,0
27.10.2020 22:00:00 7,7 5,2 6 4 20 11 ZZW 1001,0 26 0,0
27.10.2020 21:00:00 7,6 4,9 7 4 18 10 Z 1001,1 47 0,0
27.10.2020 20:00:00 8,2 5,3 7 4 16 8 Z 1001,2 48 0,0
27.10.2020 19:00:00 8,8 5,9 6 3 16 9 ZZO 1001,2 30 0,0
27.10.2020 18:00:00 8,9 6,2 10 5 21 12 Z 1001,3 33 0,0
27.10.2020 17:00:00 8,8 5,5 6 3 21 11 Z 1001,5 43 0,0
27.10.2020 16:00:00 9,3 5,3 6 4 16 9 Z 1001,8 45 0,0
27.10.2020 15:00:00 9,9 5,1 6 3 19 11 Z 1001,7 50 0,0
27.10.2020 14:00:00 10,0 5,6 9 5 23 12 ZW 1002,1 45 0,0
27.10.2020 13:00:00 10,1 6,3 10 5 20 11 ZW 1002,0 38 0,0
27.10.2020 12:00:00 10,0 6,9 9 5 22 12 ZZW 1002,1 39 0,0
27.10.2020 11:00:00 9,9 7,1 7 4 17 9 ZW 1002,0 36 0,0
27.10.2020 10:00:00 9,7 7,5 8 4 18 10 ZZW 1001,8 50 0,0
27.10.2020 09:00:00 9,2 7,1 6 3 16 9 ZZW 1001,1 47 0,0
27.10.2020 08:00:00 8,9 7,0 6 4 15 8 ZZW 1000,7 50 0,0
27.10.2020 07:00:00 8,3 6,1 5 3 12 7 ZZW 1000,5 49 0,0
27.10.2020 06:00:00 9,0 7,1 6 4 15 8 ZZW 1000,0 50 0,0
27.10.2020 05:00:00 8,9 6,9 4 2 16 9 ZZW 999,6 46 0,4
27.10.2020 04:00:00 9,3 7,4 7 4 14 8 ZZW 1000,0 20 1,6
27.10.2020 03:00:00 9,4 7,5 4 2 11 6 ZZW 1000,1 10 2,6
27.10.2020 02:00:00 9,0 7,0 0 0 3 2 N 1000,0 1,7 2,2
27.10.2020 01:00:00 9,3 6,7 0 0 4 2 N 1000,3 2,1 2,0
27.10.2020 00:00:00 9,8 7,4 0 0 5 3 N 1000,6 3,9 2,1
26.10.2020 23:00:00 9,7 7,5 2 1 5 3 O 1001,0 6 0,7
26.10.2020 22:00:00 9,4 7,2 0 0 5 3 N 1001,4 1,0 0,4
26.10.2020 21:00:00 9,6 7,5 0 0 5 3 N 1002,1 2,5 0,8
26.10.2020 20:00:00 9,2 7,0 0 0 4 2 N 1002,0 11 0,0
26.10.2020 19:00:00 8,3 6,1 2 1 3 2 O 1002,3 0,4 0,0
26.10.2020 18:00:00 8,7 6,1 0 0 5 3 N 1002,6 1,9 0,0
26.10.2020 17:00:00 9,5 6,4 0 0 6 4 N 1002,6 22 0,0
26.10.2020 16:00:00 10,1 7,0 0 0 8 4 N 1002,5 20 0,0
26.10.2020 15:00:00 11,1 8,0 3 2 8 4 Z 1002,4 26 0,0
26.10.2020 14:00:00 11,3 8,2 2 1 10 5 ZZO 1002,3 22 0,0
26.10.2020 13:00:00 - - - - - - - - - -
26.10.2020 12:00:00 11,2 8,1 5 3 13 7 ZZW 1002,5 34 0,0
26.10.2020 11:00:00 10,8 8,2 6 3 14 8 ZW 1002,1 50 0,0
26.10.2020 10:00:00 10,3 8,1 7 4 13 7 ZZW 1001,9 50 0,0
26.10.2020 09:00:00 9,2 7,3 5 3 18 10 ZZW 1001,8 29 0,0
26.10.2020 08:00:00 8,4 5,9 2 1 11 6 Z 1001,4 2,2 0,0
26.10.2020 07:00:00 9,2 7,0 4 2 11 6 ZZW 1000,8 50 0,0
26.10.2020 06:00:00 9,3 7,2 2 1 9 5 ZO 1000,2 18 0,0
26.10.2020 05:00:00 9,7 7,8 3 2 7 4 Z 1000,3 25 0,3
26.10.2020 04:00:00 10,3 8,4 5 3 15 8 ZW 1000,4 21 1,1
26.10.2020 03:00:00 10,6 8,5 5 3 13 7 ZZW 1000,2 13 0,9
26.10.2020 02:00:00 10,8 8,9 5 3 16 9 ZZW 1000,4 16 1,4
26.10.2020 01:00:00 11,2 9,1 4 2 11 6 Z 1000,4 8 2,4
26.10.2020 00:00:00 11,4 9,1 2 1 13 7 ZW 1000,7 8 2,5
25.10.2020 23:00:00 11,7 9,6 5 3 17 9 Z 1000,8 12 0,9
25.10.2020 22:00:00 11,9 9,8 6 4 18 10 ZZW 1000,8 12 0,2
25.10.2020 21:00:00 12,0 9,7 8 4 24 13 ZZW 1000,7 33 0,3
25.10.2020 20:00:00 12,0 10,1 9 5 22 12 ZZW 1000,6 10 0,8
25.10.2020 19:00:00 12,3 9,7 10 5 24 13 ZZW 1000,3 8 0,0
25.10.2020 18:00:00 12,3 9,1 6 3 22 12 Z 1000,2 14 0,0
25.10.2020 17:00:00 12,4 9,2 7 4 20 11 Z 1000,2 15 0,0
25.10.2020 16:00:00 12,5 9,5 9 5 32 17 Z 999,9 18 0,0
25.10.2020 15:00:00 12,4 9,6 10 5 28 15 Z 1000,5 20 0,1
25.10.2020 14:00:00 12,8 8,9 6 3 20 11 ZZO 1000,7 20 0,1
25.10.2020 13:00:00 12,5 8,8 8 5 25 14 Z 1001,5 15 0,0
25.10.2020 12:00:00 12,1 8,6 9 5 28 15 Z 1001,9 37 0,0
25.10.2020 11:00:00 11,2 8,4 11 6 26 14 Z 1002,4 14 0,0
25.10.2020 10:00:00 10,1 7,5 8 4 19 10 Z 1003,0 14 0,0
25.10.2020 09:00:00 9,4 6,8 8 5 18 10 Z 1003,5 9 0,0
25.10.2020 08:00:00 8,5 6,1 5 3 21 11 Z 1004,0 12 0,0
25.10.2020 07:00:00 7,2 5,2 5 3 16 9 ZZO 1004,2 15 0,0
25.10.2020 06:00:00 6,5 4,7 6 3 16 8 ZO 1004,6 17 0,0
25.10.2020 05:00:00 5,4 3,4 4 2 14 8 ZZO 1005,9 18 0,0
25.10.2020 04:00:00 4,8 2,8 6 3 23 12 ZZW 1006,4 16 0,0
25.10.2020 03:00:00 4,0 1,9 5 3 15 8 Z 1006,7 10 0,0
25.10.2020 02:00:00 3,5 1,1 3 1 9 5 ZO 1006,9 19 0,0
25.10.2020 01:00:00 - - - - - - - - - -
25.10.2020 00:00:00 3,4 1,0 2 1 9 5 ZO 1007,2 13 0,0
24.10.2020 23:00:00 3,2 0,8 0 0 10 5 N 1006,9 18 0,0
24.10.2020 22:00:00 3,5 1,4 3 2 9 5 ZZW 1007,4 14 0,0
24.10.2020 21:00:00 3,5 1,1 0 0 6 3 N 1007,0 19 0,0
24.10.2020 20:00:00 3,4 0,8 0 0 11 6 N 1006,8 21 0,0
24.10.2020 19:00:00 3,5 1,5 8 4 12 7 W 1006,8 12 0,0
24.10.2020 18:00:00 3,3 1,5 6 4 16 8 W 1006,0 8 0,0
24.10.2020 17:00:00 3,2 1,4 11 6 19 11 WNW 1005,4 15 0,0
24.10.2020 16:00:00 3,3 1,7 11 6 22 12 NW 1004,8 10 0,0
24.10.2020 15:00:00 3,4 2,1 15 8 26 14 NW 1003,9 3,1 0,0
24.10.2020 14:00:00 4,3 3,0 18 10 24 13 WNW 1002,5 6 0,0
24.10.2020 13:00:00 7,1 5,4 19 10 29 16 WNW 1001,1 3,8 0,3
24.10.2020 12:00:00 9,5 7,1 8 5 16 9 ZZW 1000,3 10 0,0
24.10.2020 11:00:00 8,7 6,8 7 4 17 9 ZZW 1000,2 7 0,0
24.10.2020 10:00:00 7,4 5,0 3 2 7 4 ZZW 1000,3 12 0,0
24.10.2020 09:00:00 6,5 4,8 3 2 7 4 ZO 1000,4 14 0,0
24.10.2020 08:00:00 4,8 3,0 3 2 12 7 OZO 1000,9 14 1,2
24.10.2020 07:00:00 4,0 2,5 6 3 11 6 O 1001,6 10 1,2
24.10.2020 06:00:00 3,5 1,9 4 2 9 5 O 1002,6 7 0,2
24.10.2020 05:00:00 3,1 1,1 5 3 10 5 O 1003,3 11 0,0
24.10.2020 04:00:00 2,7 0,8 3 2 10 5 OZO 1004,3 - 0,0
24.10.2020 03:00:00 1,2 -1,2 0 0 2 1 N 1005,1 10 0,0
24.10.2020 02:00:00 0,7 -1,4 0 0 5 3 N 1005,6 10 0,0
24.10.2020 01:00:00 -0,2 -1,9 3 1 5 3 ZW 1006,1 - 0,0
24.10.2020 00:00:00 -0,6 -3,3 2 1 5 3 NO 1006,1 10 0,0
23.10.2020 23:00:00 -0,3 -2,5 0 0 3 1 N 1006,9 11 0,0
23.10.2020 22:00:00 -1,2 -3,6 0 0 1 1 N 1006,9 10 0,0
23.10.2020 21:00:00 -1,9 -3,9 0 0 3 2 N 1006,8 2,8 0,0
23.10.2020 20:00:00 -2,4 -4,9 0 0 4 2 N 1006,7 0,2 0,0
23.10.2020 19:00:00 -0,9 -3,9 0 0 4 2 N 1006,7 1,2 0,0
23.10.2020 18:00:00 -1,5 -4,7 0 0 5 3 N 1006,5 15 0,0
23.10.2020 17:00:00 1,2 -1,7 0 0 7 4 N 1006,1 17 0,0
23.10.2020 16:00:00 3,3 -1,1 5 3 13 7 W 1005,5 19 0,0
23.10.2020 15:00:00 4,4 -1,0 8 5 14 7 W 1005,3 15 0,0
23.10.2020 14:00:00 4,6 -1,0 10 5 17 9 W 1005,2 19 0,0
23.10.2020 13:00:00 4,4 -2,2 10 5 17 9 NW 1004,9 16 0,0
23.10.2020 12:00:00 3,9 -0,4 10 5 16 9 NNW 1004,3 17 0,0
23.10.2020 11:00:00 3,8 -0,2 10 5 24 13 N 1003,3 19 0,0
23.10.2020 10:00:00 3,0 0,7 12 6 21 11 N 1002,6 16 0,0
23.10.2020 09:00:00 2,4 0,5 11 6 24 13 N 1001,5 9 0,1
23.10.2020 08:00:00 2,7 0,9 10 6 29 16 N 1000,2 4,4 0,2
23.10.2020 07:00:00 3,7 1,7 13 7 28 15 NNO 998,8 16 0,0
23.10.2020 06:00:00 5,7 3,9 14 8 41 22 NNO 997,1 13 0,3
23.10.2020 05:00:00 9,5 7,8 12 6 19 11 WZW 995,4 21 0,1
23.10.2020 04:00:00 9,6 7,9 6 4 20 11 WZW 995,2 22 1,0
23.10.2020 03:00:00 9,9 8,0 9 5 22 12 WZW 995,3 11 0,1
23.10.2020 02:00:00 10,0 7,8 9 5 21 12 ZW 995,5 25 0,0
23.10.2020 01:00:00 10,3 7,7 9 5 23 12 ZW 995,8 31 0,0
23.10.2020 00:00:00 10,4 8,0 9 5 25 13 ZW 996,2 17 0,0
22.10.2020 23:00:00 11,0 8,7 11 6 34 18 WZW 996,6 31 0,3
22.10.2020 22:00:00 11,4 9,7 12 6 28 15 WZW 996,5 14 0,9
22.10.2020 21:00:00 11,7 9,6 15 8 30 16 WZW 996,4 34 0,0
22.10.2020 20:00:00 12,1 10,2 19 10 33 18 WZW 996,5 8 2,0
22.10.2020 19:00:00 12,2 9,9 8 4 18 10 ZZW 996,6 13 0,0
22.10.2020 18:00:00 12,0 9,7 8 5 19 11 ZW 997,1 28 0,0
22.10.2020 17:00:00 11,8 9,5 8 4 14 7 ZZW 997,6 39 0,0
22.10.2020 16:00:00 11,7 9,1 6 3 19 10 ZZW 997,6 22 0,0
22.10.2020 15:00:00 12,0 9,4 6 3 22 12 ZW 997,8 36 0,0
22.10.2020 14:00:00 11,8 8,8 19 10 31 17 W 997,9 31 0,0
22.10.2020 13:00:00 11,9 9,1 16 9 31 17 WNW 996,8 50 0,0
22.10.2020 12:00:00 11,4 9,0 16 9 29 16 WNW 995,8 34 0,0
22.10.2020 11:00:00 11,2 9,3 16 9 29 16 WNW 994,3 25 0,0
22.10.2020 10:00:00 11,1 9,7 14 8 22 12 WNW 992,6 16 0,4
22.10.2020 09:00:00 10,8 9,2 7 4 11 6 NNW 991,2 10 0,6
22.10.2020 08:00:00 10,6 8,7 4 2 6 4 N 990,1 3,2 0,3
22.10.2020 07:00:00 10,6 8,5 2 1 8 4 NO 989,7 2,1 0,6
22.10.2020 06:00:00 10,6 8,5 4 2 7 4 O 990,0 12 1,3
22.10.2020 05:00:00 10,8 8,7 4 2 10 5 OZO 991,0 14 1,0
22.10.2020 04:00:00 10,8 9,1 5 3 14 8 OZO 991,9 6 1,1
22.10.2020 03:00:00 10,4 8,8 7 4 15 8 O 993,2 7 1,8
22.10.2020 02:00:00 10,3 8,6 9 5 14 7 O 995,1 7 1,3
22.10.2020 01:00:00 10,2 8,5 7 4 11 6 OZO 996,6 9 0,3

tt = temperatuur
td = dauwpunt
ff = windsnelheid
fx = windstoten
dd = windrichting
ppp = luchtdruk
vv = zicht
rr = neerslag

Weerstations in de omgeving